DW0683 Weather Reports


Display with metric or nautical units.
time (UTC)temp
F
wind
direction
speed
MPH
gust
MPH
rain 1hr
in
rain 24hr
in
rain mn
in
humidity
%
barometer
mb
20260506203824 85 215 7.0 12.0 0.00 0.00 0.00 52 1015.3
20260506150817 85 146 3.0 8.0 0.00 0.00 0.00 42 1016.8
20260506143842 83 211 0.0 6.0 0.00 0.00 0.00 45 1016.8
20260506140826 82 80 2.0 7.0 0.00 0.00 0.00 44 1016.8
20260506133849 79 178 3.0 11.0 0.00 0.00 0.00 46 1016.8
20260506130817 77 169 3.0 7.0 0.00 0.00 0.00 47 1016.6
20260506123826 73 194 2.0 5.0 0.00 0.00 0.00 47 1016.5
20260506120833 0 0.0 0.0 0.00 0.00 0.00 1016.3
20260506030817 72 42 0.0 5.0 0.00 0.00 0.00 49 1016.1
20260506023823 73 327 0.0 0.0 0.00 0.00 0.00 53 1016.1
20260506020847 74 327 0.0 0.0 0.00 0.00 0.00 57 1015.4
20260506013817 75 327 0.0 2.0 0.00 0.00 0.00 58 1015.4
20260506010825 76 327 1.0 2.0 0.00 0.00 0.00 58 1015.0
20260506003816 77 304 2.0 5.0 0.00 0.00 0.00 58 1014.7
20260506000821 78 292 0.0 4.0 0.00 0.00 0.00 56 1014.4
20260505233849 79 305 2.0 7.0 0.00 0.00 0.00 56 1014.1
20260505230833 80 280 4.0 11.0 0.00 0.00 0.00 55 1014.1
20260505223820 81 280 3.0 10.0 0.00 0.00 0.00 53 1014.1
20260505220822 83 316 3.0 10.0 0.00 0.00 0.00 52 1014.0
20260505213831 81 297 4.0 8.0 0.00 0.00 0.00 53 1013.9
20260505210819 82 260 5.0 10.0 0.00 0.00 0.00 52 1014.0